This is the latest recevied weather packets stored in our database for station/object KF0ZH. If no packets are shown the sender has not sent any weather packets the latest 10 day(s).
| Time | Temp. | Humidity | Pressure | Rain* | Wind** | Luminosity | Snow |
|---|---|---|---|---|---|---|---|
| 1777662720 | 10° C | 51% | 1017.6 hPa | 0 mm | 0 m/s | - | - |
| 1777662421 | 10° C | 49% | 1017.7 hPa | 0 mm | 2.68 m/s, 28° | - | - |
| 1777662124 | 9.44° C | 49% | 1017.7 hPa | 0 mm | 3.13 m/s, 323° | - | - |
| 1777661826 | 10° C | 51% | 1017.8 hPa | 0 mm | 0 m/s | - | - |
| 1777661223 | 10° C | 48% | 1017.7 hPa | 0 mm | 0 m/s | - | - |
| 1777660921 | 9.44° C | 50% | 1017.7 hPa | 0 mm | 0 m/s | - | - |
| 1777660320 | 9.44° C | 50% | 1017.8 hPa | 0 mm | 0 m/s | - | - |
| 1777659721 | 9.44° C | 51% | 1017.8 hPa | 0 mm | 0 m/s | - | - |
| 1777659420 | 9.44° C | 51% | 1017.8 hPa | 0 mm | 0 m/s | - | - |
| 1777659121 | 9.44° C | 51% | 1017.8 hPa | 0 mm | 0 m/s | - | - |
| 1777658821 | 9.44° C | 53% | 1017.9 hPa | 0 mm | 0 m/s | - | - |
| 1777658520 | 8.89° C | 50% | 1018 hPa | 0 mm | 3.58 m/s, 334° | - | - |
| 1777658221 | 9.44° C | 52% | 1017.9 hPa | 0 mm | 3.58 m/s, 313° | - | - |
| 1777657923 | 8.89° C | 52% | 1017.9 hPa | 0 mm | 3.58 m/s, 344° | - | - |
| 1777657621 | 9.44° C | 51% | 1017.9 hPa | 0 mm | 0 m/s | - | - |
| 1777657321 | 9.44° C | 54% | 1017.9 hPa | 0 mm | 0 m/s | - | - |
| 1777657022 | 8.89° C | 53% | 1018 hPa | 0 mm | 2.68 m/s, 26° | - | - |
| 1777656722 | 8.89° C | 53% | 1018 hPa | 0 mm | 3.13 m/s, 64° | - | - |
| 1777656428 | 9.44° C | 52% | 1018 hPa | 0 mm | 2.24 m/s, 337° | - | - |
| 1777656121 | 9.44° C | 53% | 1018.1 hPa | 0 mm | 0 m/s | - | - |
| 1777655822 | 8.89° C | 53% | 1018.1 hPa | 0 mm | 2.24 m/s, 344° | - | - |
| 1777655522 | 8.89° C | 52% | 1018 hPa | 0 mm | 1.34 m/s, 331° | - | - |
| 1777655221 | 9.44° C | 53% | 1018.1 hPa | 0 mm | 2.24 m/s, 358° | - | - |
| 1777654922 | 9.44° C | 55% | 1018.1 hPa | 0 mm | 0 m/s | - | - |
| 1777654622 | 8.89° C | 53% | 1018 hPa | 0 mm | 3.58 m/s, 326° | - | - |
* Rain latest hour (hover to see other rain measurements)
** Current wind speed in m/s (hover to see current wind gust speed)